[ hide orbit diagram ]
For accurate long-term ephemerides, please instead use our Horizons system.This orbit viewer was implemented using two-body methods, and hence should not be used for determining accurate long-term trajectories (over several years or decades) or planetary encounter circumstances.
Orbital Elements at Epoch 2459200.5 (2020-Dec-17.0) TDB
Reference: JPL 34 (heliocentric ecliptic J2000)
Element | Value | Uncertainty (1-sigma) | Units |
e | .171917620467357 | 2.0986e-08 | |
a | 3.132753874334956 | 1.4059e-08 | au |
q | 2.594178282749397 | 6.9697e-08 | au |
i | 2.178289941633673 | 1.1399e-06 | deg |
node | 136.8905250709406 | 1.2141e-05 | deg |
peri | 212.235311921192 | 1.4225e-05 | deg |
M | 312.8178836333419 | 5.2196e-06 | deg |
tp | 2459465.937792631295 (2021-Sep-08.43779263) | 3.0042e-05 | TDB |
period | 2025.292901333127 5.54 | 1.3634e-05 3.733e-08 | d yr |
n | .1777520672506351 | 1.1966e-09 | deg/d |
Q | 3.671329465920515 | 1.6476e-08 | au |
|
| | Orbit Determination Parameters
Additional Information
|
[ show covariance matrix ]
Physical Parameter Table
Parameter |
Symbol |
Value |
Units |
Sigma |
Reference |
Notes |
absolute magnitude |
H |
12.97 |
|
n/a |
E2021B10 |
|
diameter |
diameter |
14.763 |
km |
0.124 |
urn:nasa:pds:neowise_diameters_albedos::2.0[mainbelt] (http://adsabs.harvard.edu/abs/2011ApJ...741...68M) |
|
geometric albedo |
albedo |
0.071 |
|
0.002 |
urn:nasa:pds:neowise_diameters_albedos::2.0[mainbelt] (http://adsabs.harvard.edu/abs/2011ApJ...741...68M) |
|
|
4412 Chephren (2535 P-L) Discovered 1960-Sep-26 by van Houten and Gehrels at Palomar |
Reference: DISCOVERY.DB | Last Updated: 2003-08-29 |
|
[ show close-approach data ]
|